Lid_Strength_Index
2 2 2 2 3 3 4 4 6 6 5 4 4 4 4 4 4 3 2 -0 -0 -0 -1 -0 0 0 1 1 1 1 1 1 1 1 1 1 1 1 1 1 1 1 1
1 2 2 3 3 4 5 5 6 8 6 4 4 4 5 5 5 5 4 2 0 0 0 0 0 0 1 1 1 1 1 1 2 2 2 2 2 1 1 1 1 1 1
1 2 3 3 4 4 5 6 8 8 7 6 6 5 5 6 6 6 6 6 5 1 0 0 1 1 1 1 1 2 2 2 2 2 2 2 2 2 2 2 2 2 1
2 2 3 4 4 5 5 7 8 9 9 7 8 8 7 7 7 7 7 7 7 6 2 1 1 1 1 2 2 2 2 2 2 2 2 2 2 2 2 2 2 2 2
2 3 3 4 5 5 6 7 9 8 9 9 10 11 10 9 8 7 8 8 7 8 8 4 3 2 2 2 2 2 2 3 3 3 3 3 2 2 2 2 2 2 2
2 3 4 5 5 5 6 8 9 9 9 10 11 14 14 12 11 10 10 9 9 9 10 10 9 7 2 2 3 3 3 3 3 3 3 3 3 2 2 2 2 2 2
3 3 4 5 5 7 6 8 9 11 14 13 15 16 16 15 14 12 12 11 10 11 11 11 11 10 8 4 4 4 4 3 3 3 3 3 3 2 2 2 2 2 2
4 4 4 5 5 7 8 8 9 11 14 12 14 15 17 15 15 15 14 12 12 12 12 12 12 12 10 10 9 6 6 5 4 4 4 3 3 3 3 3 3 3 2
4 5 5 5 6 7 8 8 9 10 12 13 12 15 18 17 17 16 16 14 13 13 13 13 13 13 13 13 9 9 8 8 7 5 4 4 3 3 3 3 3 3 3
4 5 6 6 7 7 8 8 9 10 10 13 13 14 15 16 18 19 16 15 14 14 13 13 13 13 13 14 11 11 10 9 8 7 6 4 4 4 4 4 4 4 4
3 5 5 6 6 7 8 8 9 11 10 12 12 16 15 15 16 18 19 17 15 14 13 13 13 14 14 14 14 12 8 8 8 8 7 6 4 4 4 4 4 4 4
4 4 5 5 6 6 7 8 9 10 11 11 13 15 15 14 15 17 18 18 16 15 15 15 14 13 13 14 12 10 8 8 7 6 6 5 4 5 5 5 4 4 4
4 4 4 5 5 6 6 7 8 10 10 11 13 14 14 13 13 14 16 18 18 16 17 16 13 13 12 13 13 10 9 7 8 7 5 5 5 6 6 5 5 4 5
4 4 4 5 5 5 6 7 8 10 10 10 12 13 14 14 13 14 15 17 19 18 17 14 13 12 13 13 12 10 13 9 9 7 6 6 7 7 7 7 6 6 6
4 4 4 5 5 6 6 7 8 10 10 11 12 13 13 13 14 13 14 15 16 19 17 15 14 14 13 13 12 12 13 12 9 8 7 7 8 8 8 8 7 6 7
5 5 5 5 6 6 7 8 9 10 11 12 12 13 13 14 14 14 14 14 15 16 17 14 15 15 13 13 12 13 14 12 10 9 8 8 9 9 9 9 8 8 7
5 5 5 6 7 7 7 8 8 9 11 12 13 13 13 14 14 14 14 14 14 14 16 16 16 15 15 14 14 14 14 14 14 10 9 8 10 9 9 9 9 9 9
5 5 5 7 7 8 8 9 9 9 11 13 13 13 13 13 14 14 14 15 14 14 15 17 17 17 16 15 15 15 15 14 16 13 11 10 10 10 10 10 10 9 10
5 6 6 7 7 8 8 8 9 9 9 10 12 13 13 13 14 15 15 15 15 15 15 17 19 17 17 17 16 16 16 17 16 14 12 11 10 10 10 10 10 11 11
6 6 6 7 7 7 8 8 9 9 10 10 11 12 13 14 14 15 15 15 16 16 16 17 18 18 18 17 17 18 18 18 18 16 14 13 11 11 11 11 12 13 12
5 5 6 6 7 7 8 9 8 9 10 11 11 12 12 13 13 13 14 15 16 17 17 17 18 18 18 18 18 18 19 19 18 17 17 16 16 16 16 15 15 13 12
6 6 7 7 7 8 8 9 9 9 10 11 12 12 12 12 12 12 12 13 14 16 17 17 18 17 17 17 18 18 18 18 18 18 18 17 17 17 17 18 14 13 12
6 7 7 7 7 8 8 8 9 9 10 11 11 12 13 13 13 13 12 12 12 12 13 15 16 17 16 17 17 18 18 19 19 18 18 18 18 18 18 17 14 13 13
6 7 7 8 8 8 8 8 9 9 10 10 11 12 12 13 13 13 14 14 14 13 14 15 15 15 15 15 16 16 17 17 17 18 18 20 19 19 17 18 15 14 14
7 8 8 8 8 8 8 8 8 10 11 11 11 11 12 13 12 11 13 14 15 15 13 13 13 13 13 13 14 16 18 18 18 18 19 21 20 20 18 19 18 15 15
11 8 8 8 8 9 9 8 9 10 11 11 11 11 11 12 11 11 13 14 15 16 15 15 15 14 13 13 13 15 16 18 19 21 19 21 21 21 21 19 19 19 19